Date String (YYYY-MM-DD hh:mm:ss) UTC,Instrument flags,Ambient pressure (hPa),Sample flow (lpm),Bypass flow (lpm),Sample temperature (°C),Ambient temperature (°C),ASC tube jacket temperature (°C),LED temperature (°C),Box temperature (°C),Sample RH (%),Span deviation,Mass concentration (μg/m³),Mass concentration (μg/m³),Mass concentration (μg/m³)
DateTimeUTC,F1_M11,P_M11,Q1_M11,Q2_M11,T1_M11,T2_M11,T3_M11,T4_M11,T5_M11,U1_M11,ZSPAN_M11,X2_M11,X0_M11,X1_M11
2022-05-28 16:00:00,,0817.4,4.99,0.00,29.9,29.0,00.0,38.8,31.9,23.0,0000.0,0005.66,0016.21,0004.57
2022-05-28 16:01:00,,0817.4,5.00,0.00,30.0,29.1,00.0,38.8,31.9,24.0,0000.0,0005.65,0016.61,0004.54
2022-05-28 16:02:00,,0817.4,5.01,0.00,30.0,29.1,00.0,38.8,31.9,24.2,0000.0,0005.63,0017.12,0004.52
2022-05-28 16:03:00,,0817.4,5.01,0.00,30.0,29.1,00.0,38.8,31.9,24.0,0000.0,0005.60,0017.86,0004.49
2022-05-28 16:04:00,,0817.4,5.01,0.00,30.0,29.2,00.0,38.9,32.0,23.2,0000.0,0005.60,0017.33,0004.47
2022-05-28 16:05:00,,0817.4,5.01,0.00,30.1,29.2,00.0,38.9,32.0,23.5,0000.0,0005.54,0016.08,0004.44
2022-05-28 16:06:00,,0817.4,5.01,0.00,30.1,29.2,00.0,38.9,32.0,22.6,0000.0,0005.54,0016.12,0004.42
2022-05-28 16:07:00,,0817.4,5.01,0.00,30.1,29.2,00.0,38.9,32.0,21.9,0000.0,0005.56,0015.61,0004.43
2022-05-28 16:08:00,,0817.3,4.99,0.00,30.1,28.4,00.0,38.9,31.8,22.5,0000.0,0005.54,0015.43,0004.43
2022-05-28 16:09:00,,0817.3,5.01,0.00,30.0,27.6,00.0,38.8,31.5,23.1,0000.0,0005.50,0015.29,0004.43
2022-05-28 16:10:00,,0817.3,5.01,0.00,29.9,27.4,00.0,38.8,31.4,23.6,0000.0,0005.52,0014.94,0004.43
2022-05-28 16:11:00,,0817.3,5.01,0.00,29.8,27.4,00.0,38.7,31.4,24.0,0000.0,0005.53,0015.42,0004.43
2022-05-28 16:12:00,,0817.2,4.98,0.00,29.8,27.6,00.0,38.7,31.4,24.1,0000.0,0005.55,0015.55,0004.45
2022-05-28 16:13:00,,0817.2,5.01,0.00,29.7,27.7,00.0,38.7,31.5,24.3,0000.0,0005.61,0014.91,0004.47
2022-05-28 16:14:00,,0817.1,4.99,0.00,29.7,27.9,00.0,38.7,31.5,24.6,0000.0,0005.58,0014.50,0004.47
2022-05-28 16:15:00,,0817.1,5.00,0.00,29.7,28.1,00.0,38.7,31.5,24.2,0000.0,0005.57,0014.40,0004.47
2022-05-28 16:16:00,,0817.1,5.01,0.00,29.7,28.2,00.0,38.7,31.5,22.6,0000.0,0005.57,0014.30,0004.47
2022-05-28 16:17:00,,0817.0,5.00,0.00,29.7,28.3,00.0,38.7,31.6,22.1,0000.0,0005.55,0014.07,0004.48
2022-05-28 16:18:00,,0817.0,4.99,0.00,29.8,28.4,00.0,38.7,31.6,18.6,0000.0,0005.52,0014.05,0004.49
2022-05-28 16:19:00,,0817.0,5.01,0.00,29.8,28.5,00.0,38.7,31.6,17.4,0000.0,0005.64,0014.28,0004.50
2022-05-28 16:20:00,,0817.0,5.00,0.00,29.8,28.6,00.0,38.7,31.7,16.3,0000.0,0005.69,0014.20,0004.52
2022-05-28 16:21:00,,0817.0,5.00,0.00,29.8,28.7,00.0,38.7,31.7,21.2,0000.0,0005.69,0014.23,0004.54
2022-05-28 16:22:00,,0817.0,4.99,0.00,29.8,28.8,00.0,38.7,31.7,21.7,0000.0,0005.69,0013.36,0004.56
2022-05-28 16:23:00,,0816.9,5.00,0.00,29.9,28.9,00.0,38.7,31.7,22.9,0000.0,0005.66,0013.11,0004.55
2022-05-28 16:24:00,,0816.9,5.01,0.00,29.9,28.9,00.0,38.7,31.8,23.4,0000.0,0005.56,0012.94,0004.54
2022-05-28 16:25:00,,0816.9,5.00,0.00,29.9,29.0,00.0,38.7,31.8,22.5,0000.0,0005.58,0012.78,0004.55
2022-05-28 16:26:00,,0816.9,4.98,0.00,29.9,29.0,00.0,38.8,31.9,22.9,0000.0,0005.64,0013.48,0004.56
2022-05-28 16:27:00,,0816.9,5.00,0.00,30.0,29.1,00.0,38.8,31.9,21.9,0000.0,0005.71,0014.49,0004.59
2022-05-28 16:28:00,,0816.9,5.01,0.00,30.0,29.1,00.0,38.8,31.9,21.2,0000.0,0005.74,0014.38,0004.61
2022-05-28 16:29:00,,0816.9,5.02,0.00,30.0,29.0,00.0,38.8,31.9,20.1,0000.0,0005.75,0014.72,0004.63
2022-05-28 16:30:00,,0817.1,4.99,0.00,30.0,28.3,00.0,38.7,31.7,20.1,0000.0,0005.69,0014.56,0004.65
2022-05-28 16:31:00,,0817.0,5.01,0.00,29.9,27.7,00.0,38.7,31.5,19.9,0000.0,0005.65,0014.19,0004.68
2022-05-28 16:32:00,,0817.2,4.99,0.00,29.8,27.6,00.0,38.7,31.5,18.9,0000.0,0005.68,0013.81,0004.70
2022-05-28 16:33:00,,0817.1,5.01,0.00,29.8,27.6,00.0,38.7,31.4,17.9,0000.0,0005.67,0013.60,0004.72
2022-05-28 16:34:00,,0816.8,4.99,0.00,29.7,27.8,00.0,38.7,31.5,18.2,0000.0,0005.70,0013.10,0004.75
2022-05-28 16:35:00,,0816.8,5.00,0.00,29.7,27.9,00.0,38.7,31.5,17.8,0000.0,0005.73,0012.70,0004.79
2022-05-28 16:36:00,,0816.8,5.01,0.00,29.7,28.1,00.0,38.6,31.5,16.9,0000.0,0005.73,0012.65,0004.82
2022-05-28 16:37:00,,0816.8,5.01,0.00,29.7,28.2,00.0,38.6,31.5,17.3,0000.0,0005.71,0012.07,0004.85
2022-05-28 16:38:00,,0816.8,5.00,0.00,29.7,28.3,00.0,38.6,31.6,16.9,0000.0,0005.73,0011.49,0004.87
2022-05-28 16:39:00,,0816.7,4.99,0.00,29.8,28.5,00.0,38.7,31.6,16.6,0000.0,0005.77,0011.99,0004.90
2022-05-28 16:40:00,,0816.7,5.00,0.00,29.8,28.6,00.0,38.7,31.7,17.1,0000.0,0005.77,0012.06,0004.91
2022-05-28 16:41:00,,0816.7,5.00,0.00,29.8,28.7,00.0,38.7,31.7,17.7,0000.0,0005.79,0011.93,0004.91
2022-05-28 16:42:00,,0816.7,5.00,0.00,29.8,28.8,00.0,38.7,31.7,18.9,0000.0,0005.82,0011.82,0004.90
2022-05-28 16:43:00,,0816.6,4.99,0.00,29.9,28.8,00.0,38.7,31.8,20.8,0000.0,0005.79,0011.78,0004.90
2022-05-28 16:44:00,,0816.7,5.01,0.00,29.9,28.9,00.0,38.7,31.8,20.5,0000.0,0005.81,0012.79,0004.89
2022-05-28 16:45:00,,0816.7,5.01,0.00,29.9,29.0,00.0,38.7,31.8,20.7,0000.0,0005.85,0013.23,0004.89
2022-05-28 16:46:00,,0816.6,5.00,0.00,29.9,29.0,00.0,38.7,31.9,20.8,0000.0,0005.91,0013.47,0004.89
2022-05-28 16:47:00,,0816.7,4.99,0.00,30.0,29.1,00.0,38.8,31.9,21.6,0000.0,0005.96,0014.45,0004.88
2022-05-28 16:48:00,,0816.7,5.01,0.00,30.0,29.0,00.0,38.8,31.9,21.0,0000.0,0005.98,0015.32,0004.87
2022-05-28 16:49:00,,0816.7,4.99,0.00,30.0,28.4,00.0,38.7,31.7,20.3,0000.0,0005.94,0015.12,0004.87
2022-05-28 16:50:00,,0816.6,5.01,0.00,29.9,27.6,00.0,38.6,31.5,19.8,0000.0,0005.90,0015.16,0004.85
2022-05-28 16:51:00,,0816.7,4.99,0.00,29.8,27.4,00.0,38.6,31.4,19.2,0000.0,0005.90,0014.84,0004.83
2022-05-28 16:52:00,,0816.6,5.01,0.00,29.7,27.4,00.0,38.6,31.4,19.4,0000.0,0005.88,0014.85,0004.82
2022-05-28 16:53:00,,0816.6,4.99,0.00,29.7,27.6,00.0,38.6,31.4,18.7,0000.0,0005.86,0014.98,0004.82
2022-05-28 16:54:00,,0816.7,5.01,0.00,29.7,27.7,00.0,38.6,31.4,18.6,0000.0,0005.86,0016.27,0004.82
2022-05-28 16:55:00,,0816.6,5.00,0.00,29.7,27.9,00.0,38.6,31.4,19.1,0000.0,0005.87,0016.05,0004.82
2022-05-28 16:56:00,,0816.7,5.00,0.00,29.7,28.1,00.0,38.6,31.5,18.6,0000.0,0005.88,0015.92,0004.82
2022-05-28 16:57:00,,0816.7,4.99,0.00,29.7,28.2,00.0,38.6,31.5,18.8,0000.0,0005.85,0015.69,0004.82
2022-05-28 16:58:00,,0816.7,5.01,0.00,29.7,28.3,00.0,38.6,31.5,18.8,0000.0,0005.82,0015.12,0004.82
2022-05-28 16:59:00,,0816.7,5.00,0.00,29.7,28.5,00.0,38.6,31.6,18.0,0000.0,0005.83,0013.87,0004.81
